COSMOS 2461 (735) (36401 NORAD) Tracking and Keplerian Element Data

This shows tracking and keplerian element data for the satellite.

Feedback or suggestion? Click here.




ElementValue
Catalog36401
NameCOSMOS 2461 (735)
Epoch Orbit6514
Epoch Day196.0274997
Epoch Year2018
RAAN51.4596
Inclination65.601
Eccentricity0.0008672
Argument of Perigee65.0833
Mean Anonmoly85.8489
Mean Motion2.13102322
Decay Rate-3.4E-07
L11 36401U 10007B 18196.02749970 -.00000034 00000-0 10000-3 0 9997
L22 36401 65.6010 51.4596 0008672 65.0833 85.8489 2.13102322 65146

Live tracking and technical data element details for COSMOS 2461 (735) (NORAD 36401). COSMOS 2461 (735) can be tracked NOW for your location showing map with azimuth and elevation plus other details from your city location.

Track the satellite on the map from your city or location and see movement details for azimuth, elevation, latitude, longitude, range, height, and movement on the map or in text.







IsCatalogInMostPopularTable: catalog: 36401, numindb: 40
Update: records affected: 1



GetName: 36401 COSMOS 2461 (735)

Hit Count: updated at: Sun, 15 Jul 2018 23:13:55 GMT